Time,TemperatureF,DewpointF,PressureIn,WindDirection,WindDirectionDegrees,WindSpeedMPH,WindSpeedGustMPH,Humidity,HourlyPrecipIn,Conditions,Clouds,dailyrainin,SoftwareType,DateUTC
2013-01-07 00:01:00,14.9,12.0,29.98,South,182,2.0,11.0,86,0.00,,,0.00,weatherlink.com 1.10,2013-01-07 06:01:00,
2013-01-07 00:16:00,14.9,12.0,29.96,SE,142,5.0,13.0,87,0.00,,,0.00,weatherlink.com 1.10,2013-01-07 06:16:00,
2013-01-07 00:31:00,14.8,12.0,29.95,SSE,156,3.0,12.0,88,0.00,,,0.00,weatherlink.com 1.10,2013-01-07 06:31:00,
2013-01-07 00:46:00,14.9,12.0,29.92,SE,144,3.0,9.0,88,0.00,,,0.00,weatherlink.com 1.10,2013-01-07 06:46:00,
2013-01-07 01:01:00,15.0,12.0,29.91,South,173,3.0,10.0,89,0.00,,,0.00,weatherlink.com 1.10,2013-01-07 07:01:00,
2013-01-07 01:16:00,14.9,12.0,29.91,SSE,168,4.0,9.0,88,0.00,,,0.00,weatherlink.com 1.10,2013-01-07 07:16:00,
2013-01-07 01:31:00,14.3,11.0,29.91,South,173,2.0,8.0,88,0.00,,,0.00,weatherlink.com 1.10,2013-01-07 07:31:00,
2013-01-07 01:46:00,13.7,11.0,29.91,SE,146,6.0,9.0,89,0.00,,,0.00,weatherlink.com 1.10,2013-01-07 07:46:00,
2013-01-07 02:01:00,13.5,11.0,29.89,SSE,168,3.0,8.0,89,0.00,,,0.00,weatherlink.com 1.10,2013-01-07 08:01:00,
2013-01-07 02:16:00,13.2,11.0,29.89,SSE,163,1.0,6.0,89,0.00,,,0.00,weatherlink.com 1.10,2013-01-07 08:16:00,
2013-01-07 02:31:00,12.8,10.0,29.88,SE,144,3.0,6.0,89,0.00,,,0.00,weatherlink.com 1.10,2013-01-07 08:31:00,
2013-01-07 02:46:00,12.8,11.0,29.88,SE,146,3.0,5.0,90,0.00,,,0.00,weatherlink.com 1.10,2013-01-07 08:46:00,
2013-01-07 03:01:00,12.6,10.0,29.87,SSE,153,2.0,7.0,90,0.00,,,0.00,weatherlink.com 1.10,2013-01-07 09:01:00,
2013-01-07 03:16:00,13.5,11.0,29.87,SSE,163,2.0,4.0,91,0.00,,,0.00,weatherlink.com 1.10,2013-01-07 09:16:00,
2013-01-07 03:31:00,14.0,12.0,29.87,SSE,160,3.0,3.0,90,0.00,,,0.00,weatherlink.com 1.10,2013-01-07 09:31:00,
2013-01-07 03:46:00,15.0,13.0,29.86,SSE,159,1.0,4.0,91,0.00,,,0.00,weatherlink.com 1.10,2013-01-07 09:46:00,
2013-01-07 04:01:00,15.4,13.0,29.85,South,169,2.0,8.0,90,0.00,,,0.00,weatherlink.com 1.10,2013-01-07 10:01:00,
2013-01-07 04:16:00,15.3,13.0,29.85,SSE,160,2.0,3.0,90,0.00,,,0.00,weatherlink.com 1.10,2013-01-07 10:16:00,
2013-01-07 04:31:00,15.1,13.0,29.84,SSE,160,1.0,2.0,91,0.00,,,0.00,weatherlink.com 1.10,2013-01-07 10:31:00,
2013-01-07 04:46:00,15.9,14.0,29.84,SSE,166,2.0,3.0,91,0.00,,,0.00,weatherlink.com 1.10,2013-01-07 10:46:00,
2013-01-07 05:01:00,15.8,14.0,29.84,SSE,166,1.0,2.0,91,0.00,,,0.00,weatherlink.com 1.10,2013-01-07 11:01:00,
2013-01-07 05:16:00,15.6,14.0,29.84,SSE,166,1.0,2.0,91,0.00,,,0.00,weatherlink.com 1.10,2013-01-07 11:16:00,
2013-01-07 05:32:00,16.6,15.0,29.82,South,169,1.0,4.0,92,0.00,,,0.00,weatherlink.com 1.10,2013-01-07 11:32:00,
2013-01-07 05:47:00,17.4,15.0,29.81,SSE,161,1.0,4.0,91,0.00,,,0.00,weatherlink.com 1.10,2013-01-07 11:47:00,
2013-01-07 06:02:00,18.4,17.0,29.80,SSE,163,2.0,3.0,92,0.00,,,0.00,weatherlink.com 1.10,2013-01-07 12:02:00,
2013-01-07 06:18:00,19.1,17.0,29.81,SSE,163,1.0,2.0,92,0.00,,,0.00,weatherlink.com 1.10,2013-01-07 12:18:00,
2013-01-07 06:32:00,19.6,17.0,29.81,SSE,163,1.0,2.0,91,0.00,,,0.00,weatherlink.com 1.10,2013-01-07 12:32:00,
2013-01-07 06:47:00,19.7,18.0,29.82,SSE,163,1.0,2.0,91,0.00,,,0.00,weatherlink.com 1.10,2013-01-07 12:47:00,
2013-01-07 07:02:00,19.7,17.0,29.82,SSW,207,0.0,1.0,90,0.00,,,0.00,weatherlink.com 1.10,2013-01-07 13:02:00,
2013-01-07 07:32:00,18.8,16.0,29.82,SSE,152,0.0,3.0,90,0.00,,,0.00,weatherlink.com 1.10,2013-01-07 13:32:00,
2013-01-07 07:47:00,18.8,17.0,29.81,SSE,153,1.0,4.0,91,0.00,,,0.00,weatherlink.com 1.10,2013-01-07 13:47:00,
2013-01-07 08:02:00,18.2,16.0,29.81,SSE,152,0.0,1.0,90,0.00,,,0.00,weatherlink.com 1.10,2013-01-07 14:02:00,
2013-01-07 08:32:00,17.3,15.0,29.82,SSE,152,0.0,0.0,92,0.00,,,0.00,weatherlink.com 1.10,2013-01-07 14:32:00,
2013-01-07 08:47:00,17.3,15.0,29.83,SSE,152,0.0,0.0,92,0.00,,,0.00,weatherlink.com 1.10,2013-01-07 14:47:00,
2013-01-07 09:02:00,17.3,15.0,29.83,SSE,152,0.0,1.0,92,0.00,,,0.00,weatherlink.com 1.10,2013-01-07 15:02:00,
2013-01-07 09:17:00,17.8,16.0,29.83,SSE,151,1.0,2.0,91,0.00,,,0.00,weatherlink.com 1.10,2013-01-07 15:17:00,
2013-01-07 09:32:00,19.0,17.0,29.83,SSE,151,0.0,2.0,91,0.00,,,0.00,weatherlink.com 1.10,2013-01-07 15:32:00,
2013-01-07 10:02:00,22.7,20.0,29.84,South,190,1.0,5.0,90,0.00,,,0.00,weatherlink.com 1.10,2013-01-07 16:02:00,
2013-01-07 10:17:00,24.7,21.0,29.84,SSE,163,1.0,2.0,87,0.00,,,0.00,weatherlink.com 1.10,2013-01-07 16:17:00,
2013-01-07 10:32:00,26.1,22.0,29.84,SSE,164,1.0,2.0,85,0.00,,,0.00,weatherlink.com 1.10,2013-01-07 16:32:00,
2013-01-07 10:47:00,27.7,24.0,29.84,SSE,155,1.0,3.0,84,0.00,,,0.00,weatherlink.com 1.10,2013-01-07 16:47:00,
2013-01-07 11:02:00,29.7,25.0,29.83,SSE,167,0.0,3.0,82,0.00,,,0.00,weatherlink.com 1.10,2013-01-07 17:02:00,
2013-01-07 11:18:00,31.4,26.0,29.82,WSW,251,1.0,4.0,79,0.00,,,0.00,weatherlink.com 1.10,2013-01-07 17:18:00,
2013-01-07 11:33:00,32.3,26.0,29.82,SSW,211,2.0,11.0,79,0.00,,,0.00,weatherlink.com 1.10,2013-01-07 17:33:00,
2013-01-07 11:48:00,33.3,27.0,29.82,South,170,1.0,9.0,76,0.00,,,0.00,weatherlink.com 1.10,2013-01-07 17:48:00,
2013-01-07 12:03:00,33.4,27.0,29.82,SSW,205,3.0,6.0,76,0.01,,,0.01,weatherlink.com 1.10,2013-01-07 18:03:00,
2013-01-07 12:18:00,34.0,27.0,29.82,NNW,344,2.0,5.0,76,0.02,,,0.02,weatherlink.com 1.10,2013-01-07 18:18:00,
2013-01-07 12:33:00,34.6,27.0,29.81,North,355,1.0,9.0,75,0.03,,,0.03,weatherlink.com 1.10,2013-01-07 18:33:00,
2013-01-07 12:48:00,34.7,28.0,29.80,SW,232,2.0,8.0,77,0.05,,,0.05,weatherlink.com 1.10,2013-01-07 18:48:00,
2013-01-07 13:03:00,35.2,29.0,29.80,SW,236,2.0,7.0,77,0.05,,,0.06,weatherlink.com 1.10,2013-01-07 19:03:00,
2013-01-07 13:18:00,35.1,28.0,29.81,SW,229,1.0,9.0,75,0.05,,,0.07,weatherlink.com 1.10,2013-01-07 19:18:00,
2013-01-07 13:33:00,35.9,29.0,29.80,East,97,1.0,8.0,75,0.05,,,0.08,weatherlink.com 1.10,2013-01-07 19:33:00,
2013-01-07 13:48:00,36.1,29.0,29.81,SSW,206,2.0,7.0,75,0.03,,,0.08,weatherlink.com 1.10,2013-01-07 19:48:00,
2013-01-07 14:03:00,35.9,28.0,29.81,NW,307,2.0,9.0,73,0.03,,,0.09,weatherlink.com 1.10,2013-01-07 20:03:00,
2013-01-07 14:18:00,35.7,28.0,29.81,South,189,2.0,9.0,73,0.02,,,0.09,weatherlink.com 1.10,2013-01-07 20:18:00,
2013-01-07 14:33:00,35.3,27.0,29.82,South,186,2.0,12.0,72,0.02,,,0.10,weatherlink.com 1.10,2013-01-07 20:33:00,
2013-01-07 14:48:00,35.0,28.0,29.82,ESE,114,2.0,7.0,74,0.03,,,0.11,weatherlink.com 1.10,2013-01-07 20:48:00,
2013-01-07 15:03:00,34.6,27.0,29.83,SSW,198,1.0,9.0,74,0.02,,,0.11,weatherlink.com 1.10,2013-01-07 21:03:00,
2013-01-07 15:18:00,33.9,27.0,29.83,North,5,2.0,6.0,75,0.02,,,0.11,weatherlink.com 1.10,2013-01-07 21:18:00,
2013-01-07 15:33:00,33.4,27.0,29.84,WSW,240,5.0,8.0,76,0.01,,,0.11,weatherlink.com 1.10,2013-01-07 21:33:00,
2013-01-07 15:48:00,33.3,26.0,29.84,WSW,246,0.0,3.0,75,0.00,,,0.11,weatherlink.com 1.10,2013-01-07 21:48:00,
2013-01-07 16:18:00,32.0,26.0,29.86,SSW,200,2.0,7.0,77,0.00,,,0.11,weatherlink.com 1.10,2013-01-07 22:18:00,
2013-01-07 16:33:00,31.4,25.0,29.87,SW,222,0.0,4.0,77,0.00,,,0.11,weatherlink.com 1.10,2013-01-07 22:33:00,
2013-01-07 16:48:00,30.9,25.0,29.88,SW,222,2.0,6.0,78,0.00,,,0.11,weatherlink.com 1.10,2013-01-07 22:48:00,
2013-01-07 17:03:00,30.2,25.0,29.88,SSW,192,1.0,4.0,80,0.00,,,0.11,weatherlink.com 1.10,2013-01-07 23:03:00,
2013-01-07 17:18:00,29.8,24.0,29.88,SSW,213,1.0,3.0,80,0.00,,,0.11,weatherlink.com 1.10,2013-01-07 23:18:00,
2013-01-07 17:33:00,29.4,24.0,29.89,SW,227,1.0,3.0,81,0.00,,,0.11,weatherlink.com 1.10,2013-01-07 23:33:00,
2013-01-07 17:48:00,29.0,24.0,29.90,SW,229,0.0,3.0,82,0.00,,,0.11,weatherlink.com 1.10,2013-01-07 23:48:00,
2013-01-07 18:03:00,28.8,24.0,29.90,SSW,209,1.0,2.0,82,0.00,,,0.11,weatherlink.com 1.10,2013-01-08 00:03:00,
2013-01-07 18:18:00,28.5,24.0,29.91,WSW,240,0.0,3.0,82,0.00,,,0.11,weatherlink.com 1.10,2013-01-08 00:18:00,
2013-01-07 18:33:00,28.2,24.0,29.91,WSW,240,1.0,6.0,83,0.00,,,0.11,weatherlink.com 1.10,2013-01-08 00:33:00,
2013-01-07 18:48:00,27.9,24.0,29.92,SSW,211,1.0,2.0,84,0.00,,,0.11,weatherlink.com 1.10,2013-01-08 00:48:00,
2013-01-07 19:03:00,27.7,24.0,29.92,SW,219,0.0,3.0,84,0.00,,,0.11,weatherlink.com 1.10,2013-01-08 01:03:00,
2013-01-07 19:18:00,27.4,24.0,29.93,SW,219,1.0,2.0,85,0.00,,,0.11,weatherlink.com 1.10,2013-01-08 01:18:00,
2013-01-07 19:33:00,27.3,24.0,29.93,SW,219,0.0,3.0,86,0.00,,,0.11,weatherlink.com 1.10,2013-01-08 01:33:00,
2013-01-07 19:48:00,26.9,23.0,29.93,WSW,246,0.0,2.0,86,0.00,,,0.11,weatherlink.com 1.10,2013-01-08 01:48:00,
2013-01-07 20:03:00,26.5,23.0,29.93,SW,217,0.0,2.0,86,0.00,,,0.11,weatherlink.com 1.10,2013-01-08 02:03:00,
2013-01-07 20:18:00,25.8,22.0,29.94,East,80,0.0,2.0,85,0.00,,,0.11,weatherlink.com 1.10,2013-01-08 02:18:00,
2013-01-07 20:33:00,24.4,20.0,29.94,East,80,0.0,1.0,83,0.00,,,0.11,weatherlink.com 1.10,2013-01-08 02:33:00,
2013-01-07 20:48:00,22.9,19.0,29.95,East,80,0.0,0.0,86,0.00,,,0.11,weatherlink.com 1.10,2013-01-08 02:48:00,
2013-01-07 21:03:00,22.1,19.0,29.96,East,80,0.0,0.0,88,0.00,,,0.11,weatherlink.com 1.10,2013-01-08 03:03:00,
2013-01-07 21:18:00,21.8,19.0,29.96,East,80,0.0,1.0,90,0.00,,,0.11,weatherlink.com 1.10,2013-01-08 03:18:00,
2013-01-07 21:33:00,21.5,19.0,29.96,East,80,0.0,0.0,90,0.00,,,0.11,weatherlink.com 1.10,2013-01-08 03:33:00,
2013-01-07 21:48:00,21.1,19.0,29.96,East,80,0.0,0.0,91,0.00,,,0.11,weatherlink.com 1.10,2013-01-08 03:48:00,
2013-01-07 22:03:00,20.4,18.0,29.97,East,80,0.0,0.0,90,0.00,,,0.11,weatherlink.com 1.10,2013-01-08 04:03:00,
2013-01-07 22:18:00,19.4,17.0,29.97,East,80,0.0,0.0,90,0.00,,,0.11,weatherlink.com 1.10,2013-01-08 04:18:00,
2013-01-07 22:33:00,18.8,17.0,29.98,East,80,0.0,0.0,91,0.00,,,0.11,weatherlink.com 1.10,2013-01-08 04:33:00,
2013-01-07 22:48:00,18.1,16.0,29.98,East,80,0.0,0.0,92,0.00,,,0.11,weatherlink.com 1.10,2013-01-08 04:48:00,
2013-01-07 23:03:00,17.5,16.0,29.98,East,80,0.0,0.0,92,0.00,,,0.11,weatherlink.com 1.10,2013-01-08 05:03:00,
2013-01-07 23:19:00,17.0,15.0,29.98,East,80,0.0,0.0,93,0.00,,,0.11,weatherlink.com 1.10,2013-01-08 05:19:00,
2013-01-07 23:33:00,16.4,15.0,29.98,East,80,0.0,0.0,93,0.00,,,0.11,weatherlink.com 1.10,2013-01-08 05:33:00,
2013-01-07 23:48:00,15.9,14.0,29.98,East,80,0.0,0.0,93,0.00,,,0.11,weatherlink.com 1.10,2013-01-08 05:48:00,